Regional Weather Roundup
Issued by NWS

Home | Current Version | Previous Version | Graphics & Text | Print | Product List | Glossary Off
Versions: 1 2 3 4 5 6 7 8 9 10 11 12 13 14 15 16 17 18 19 20 21 22 23 24 25 26 27 28 29 30 31 32 33 34 35 36 37 38 39 40 41 42 43 44 45 46 47 48 49 50

000
ASUS43 KTOP 311059
RWRKS

WEATHER ROUNDUP FOR KANSAS
NATIONAL WEATHER SERVICE GOODLAND KS
600 AM CDT TUE MAY 31 2016

NOTE:  "FAIR" INDICATES FEW OR NO CLOUDS BELOW 12,000 FEET WITH NO
SIGNIFICANT WEATHER AND/OR OBSTRUCTIONS TO VISIBILITY.

KSZ001>006-013>018-027>032-041>047-311200-
NORTHWEST KANSAS

CITY           SKY/WX    TMP DP  RH WIND       PRES   REMARKS
GOODLAND       CLOUDY    48  47  96 W5        30.05R
HAYS           CLOUDY    59  52  77 NW6       29.95R
HILL CITY      CLOUDY    57  55  93 CALM      29.99R
RUSSELL        LGT RAIN  60  58  92 SE13      29.92S
$$

KSZ061>065-074>080-084>089-311200-
SOUTHWEST KANSAS

CITY           SKY/WX    TMP DP  RH WIND       PRES   REMARKS
DODGE CITY     CLOUDY    57  56  96 W7        29.98R
ELKHART          N/A    N/A N/A N/A MISG        N/A
GARDEN CITY    CLOUDY    57  54  89 S12       29.99R
GREAT BEND     CLOUDY    61  52  72 S13       29.93R
LIBERAL        CLOUDY    57  52  82 NE9       30.04R
$$

KSZ066>073-081>083-090>101-311200-
SOUTHEAST KANSAS

CITY           SKY/WX    TMP DP  RH WIND       PRES   REMARKS
CHANUTE        FOG       60  58  92 CALM      29.92S VSB 1/2
COFFEYVILLE    CLOUDY    61  60  97 E5        29.91F
HUTCHINSON     RAIN      61  60  97 NE6       29.93F FOG
MEDICINE LODGE   N/A     61  58  90 CALM      29.98R
NEWTON         CLOUDY    61  55  82 W9        29.98R
PARSONS        CLOUDY    60  59  96 CALM      29.92S FOG
WICHITA INTL   TSTM      63  60  90 NW13      29.95R FOG
WICHITA JABRA  RAIN      62  61  96 W18G25    29.96R
WICHITA MCCONL TSTM      64  61  88 NW12G28   29.96R
WINFIELD       CLOUDY    64  62  93 NE5       29.91S
$$

KSZ007>012-019>026-033>040-048>060-102>105-311200-
NORTHEAST KANSAS

CITY           SKY/WX    TMP DP  RH WIND       PRES   REMARKS
CONCORDIA      CLOUDY    60  57  89 N6        29.93R
EMPORIA        CLOUDY    59  59 100 S8        29.92F
LAWRENCE       CLOUDY    60  59  96 CALM      29.94S
MANHATTAN      CLOUDY    65  60  84 S5        29.89F
OLATHE IND     CLOUDY    62  61  96 CALM      29.95S
OLATHE EXE     CLOUDY    62  60  93 CALM      29.95S
SALINA         HVY RAIN  63  60  90 S13       29.90F FOG
TOPEKA BILLARD CLOUDY    62  60  93 E7        29.92F
TOPEKA FORBES  CLOUDY    61  59  93 E5        29.92F
$$




USA.gov is the U.S. government's official web portal to all federal, state and local government web resources and services.